Hauptseite
METAR-TAF:

METAR-TAF

Flughäfen :

Flugplatz Buochs

Buochs, Schweiz

Breite: 46-58-28N, Länge: 8-23-49E, Höhe: 449 m

Beobachtung

Neuester Wetterbericht von vor 13 Minuten, um 22:20 UTC
Wind 7 kt aus West/Südwest
Temperatur 7°C
Luftfeuchtigkeit 76%
Luftdruck 1018 hPa
Sichtweite 10 km oder mehr
Durchbrochene Bewölkung in der Höhe von 3300 ft
Durchbrochene Bewölkung in der Höhe von 4000 ft
Leichtregen

METAR: LSZC 092220Z AUTO 25007KT 9999 -RA BKN033 BKN040 07/03 Q1018

Zeit: 23:33 (22:33 UTC)


TAF: fehlend

Wetterbeobachtungen und Prognosen von mehr als 4000 Flughäfen (METAR und TAF Bericht).

Die verfügbaren Stationen werden durch gelbe und rote Markierungen auf der Karte dargestellt.

Führen Sie die Maus auf sie, um den Namen der Station zu sehen.

Darauf klicken, um die Beobachtung von Wetterbeobachtungen und Prognosen zu sehen.

Um die Karte zu ändern : klicken Sie auf den grünen Tasten mit einem schwarzen Kreuz Zum Vergrößern, auf den grünen Button mit einem Gedankenstrich zu verkleinern, oder auf die grünen Pfeile für benachbarte Karten.


METAR-TAF: